Satellite: FENGYUN 1D
Catalog number: 27431
Epoch time:      103070.54047239
Element set:     234 
Inclination:       98.7639 deg
RA of node:       118.9551 deg
Eccentricity:    0.0016302
Arg of perigee:    64.4618 deg
Mean anomaly:     295.8239 deg
Mean motion:   14.09180151 rev/day
Decay rate:    7.2000E-007 rev/day^2
Epoch rev:            4232
Checksum:              287

Satellite: NOAA 17
Catalog number: 27453
Epoch time:      103070.37408701
Element set:     333 
Inclination:       98.7522 deg
RA of node:       141.4727 deg
Eccentricity:    0.0011150
Arg of perigee:   299.6975 deg
Mean anomaly:      60.3093 deg
Mean motion:   14.23307070 rev/day
Decay rate:    3.5299E-006 rev/day^2
Epoch rev:            3692
Checksum:              302

Satellite: HOT BIRD 6
Catalog number: 27499
Epoch time:      103054.87288413
Element set:     70 
Inclination:        0.0150 deg
RA of node:       173.7812 deg
Eccentricity:    0.0009015
Arg of perigee:   197.5701 deg
Mean anomaly:     109.1063 deg
Mean motion:    1.00270140 rev/day
Decay rate:    7.5000E-007 rev/day^2
Epoch rev:             188
Checksum:              258

Satellite: RUBIN 2
Catalog number: 27605
Epoch time:      103070.24190152
Element set:     79 
Inclination:       64.5509 deg
RA of node:       134.4607 deg
Eccentricity:    0.0035453
Arg of perigee:   104.4719 deg
Mean anomaly:     256.0315 deg
Mean motion:   14.71407399 rev/day
Decay rate:    1.0020E-005 rev/day^2
Epoch rev:            1185
Checksum:              270


Read previous mail | Read next mail


 15.09.2026 12:01:08lGo back Go up